QPF
0.00 0.00 0.00 0.00 0.00 0.00 0.00 0.00 0.00 0.00 0.00 0.00 0.00 0.00 0.00 0.00 0.00 0.00 0.00 0.00 0.00 0.00 0.00 0.01 0.01 0.01 0.01 0.01 0.01 0.01 0.01 0.00 0.00 0.00 0.00 0.00 0.00 0.00 0.00 0.01 0.02 0.03 0.04 0.05 0.04 0.02 0.01 0.00 0.00
0.00 0.00 0.00 0.00 0.00 0.00 0.00 0.00 0.00 0.00 0.00 0.00 0.00 0.00 0.00 0.00 0.00 0.00 0.00 0.00 0.00 0.00 0.00 0.00 0.01 0.01 0.01 0.00 0.00 0.00 0.01 0.01 0.00 0.00 0.00 0.00 0.00 0.00 0.00 0.01 0.01 0.02 0.02 0.02 0.01 0.01 0.00 0.00 0.00
0.00 0.00 0.00 0.00 0.00 0.00 0.00 0.00 0.00 0.00 0.00 0.00 0.00 0.00 0.00 0.00 0.00 0.00 0.00 0.00 0.00 0.00 0.00 0.00 0.00 0.00 0.00 0.00 0.00 0.00 0.01 0.01 0.00 0.00 0.00 0.00 0.00 0.00 0.00 0.00 0.00 0.00 0.00 0.00 0.00 0.00 0.00 0.00 0.00
0.00 0.00 0.00 0.00 0.00 0.00 0.00 0.00 0.00 0.00 0.00 0.00 0.00 0.00 0.00 0.00 0.00 0.00 0.00 0.00 0.00 0.00 0.00 0.00 0.00 0.00 0.00 0.00 0.00 0.00 0.01 0.01 0.00 0.00 0.00 0.00 0.00 0.00 0.00 0.00 0.00 0.00 0.00 0.00 0.00 0.00 0.00 0.00 0.00
0.00 0.00 0.00 0.00 0.00 0.00 0.00 0.00 0.00 0.00 0.00 0.00 0.00 0.00 0.00 0.00 0.00 0.00 0.00 0.00 0.00 0.00 0.00 0.00 0.00 0.00 0.00 0.00 0.00 0.00 0.01 0.00 0.00 0.00 0.00 0.00 0.00 0.00 0.00 0.00 0.00 0.00 0.00 0.00 0.00 0.00 0.00 0.00 0.00
0.00 0.00 0.00 0.00 0.00 0.00 0.00 0.00 0.00 0.00 0.00 0.00 0.00 0.00 0.00 0.00 0.00 0.00 0.00 0.00 0.00 0.00 0.00 0.00 0.00 0.00 0.00 0.00 0.00 0.00 0.00 0.00 0.00 0.00 0.00 0.00 0.00 0.00 0.00 0.00 0.00 0.00 0.00 0.00 0.00 0.00 0.00 0.00 0.00
0.00 0.00 0.00 0.00 0.00 0.00 0.00 0.00 0.00 0.00 0.00 0.00 0.00 0.00 0.00 0.00 0.00 0.00 0.00 0.00 0.00 0.00 0.00 0.00 0.00 0.00 0.00 0.00 0.00 0.00 0.00 0.00 0.00 0.00 0.00 0.00 0.00 0.00 0.00 0.00 0.00 0.00 0.00 0.00 0.00 0.00 0.00 0.00 0.00
0.00 0.00 0.00 0.00 0.00 0.00 0.00 0.00 0.00 0.00 0.00 0.00 0.00 0.00 0.00 0.00 0.00 0.00 0.00 0.00 0.00 0.00 0.00 0.00 0.00 0.00 0.00 0.00 0.00 0.00 0.00 0.00 0.00 0.00 0.00 0.00 0.00 0.00 0.00 0.00 0.00 0.00 0.00 0.00 0.00 0.00 0.00 0.00 0.00
0.00 0.00 0.00 0.00 0.00 0.00 0.00 0.00 0.00 0.00 0.00 0.00 0.00 0.00 0.00 0.00 0.00 0.00 0.00 0.01 0.01 0.01 0.01 0.00 0.00 0.00 0.00 0.00 0.00 0.00 0.00 0.00 0.00 0.00 0.00 0.00 0.00 0.00 0.00 0.00 0.00 0.00 0.00 0.00 0.00 0.00 0.00 0.00 0.00
0.00 0.00 0.00 0.00 0.00 0.00 0.00 0.00 0.00 0.00 0.00 0.00 0.00 0.00 0.00 0.00 0.00 0.00 0.00 0.01 0.01 0.02 0.02 0.01 0.00 0.00 0.00 0.00 0.00 0.00 0.00 0.00 0.00 0.00 0.00 0.00 0.00 0.00 0.00 0.00 0.00 0.00 0.00 0.00 0.00 0.00 0.00 0.00 0.00
0.00 0.00 0.00 0.00 0.00 0.00 0.00 0.00 0.00 0.00 0.00 0.00 0.00 0.00 0.00 0.00 0.00 0.00 0.00 0.00 0.00 0.01 0.01 0.00 0.00 0.00 0.00 0.00 0.00 0.00 0.00 0.00 0.00 0.00 0.00 0.00 0.00 0.00 0.00 0.00 0.00 0.00 0.00 0.00 0.00 0.00 0.00 0.00 0.00
0.00 0.00 0.00 0.00 0.00 0.00 0.00 0.00 0.00 0.00 0.00 0.00 0.00 0.00 0.00 0.00 0.00 0.01 0.00 0.00 0.00 0.00 0.00 0.00 0.00 0.00 0.00 0.00 0.00 0.00 0.00 0.00 0.00 0.00 0.00 0.00 0.00 0.00 0.00 0.00 0.00 0.00 0.00 0.00 0.00 0.00 0.00 0.00 0.00
0.00 0.00 0.00 0.00 0.00 0.00 0.00 0.00 0.00 0.00 0.00 0.00 0.00 0.00 0.00 0.00 0.00 0.00 0.00 0.01 0.01 0.01 0.01 0.01 0.00 0.00 0.00 0.00 0.00 0.00 0.00 0.00 0.00 0.00 0.00 0.00 0.00 0.00 0.00 0.00 0.00 0.00 0.00 0.00 0.00 0.00 0.00 0.00 0.00
0.00 0.00 0.00 0.00 0.00 0.00 0.00 0.00 0.00 0.00 0.00 0.00 0.00 0.00 0.00 0.00 0.00 0.00 0.00 0.00 0.00 0.00 0.01 0.01 0.01 0.01 0.00 0.00 0.00 0.00 0.00 0.00 0.00 0.00 0.00 0.00 0.00 0.00 0.00 0.00 0.00 0.00 0.00 0.00 0.00 0.00 0.00 0.00 0.00
0.00 0.00 0.00 0.00 0.00 0.00 0.00 0.00 0.00 0.00 0.00 0.00 0.00 0.00 0.00 0.00 0.00 0.00 0.00 0.00 0.00 0.00 0.00 0.01 0.01 0.01 0.01 0.01 0.01 0.01 0.00 0.00 0.00 0.00 0.00 0.00 0.00 0.00 0.00 0.00 0.00 0.00 0.00 0.00 0.00 0.00 0.00 0.00 0.00
0.00 0.00 0.00 0.00 0.00 0.00 0.00 0.00 0.00 0.00 0.00 0.00 0.00 0.00 0.00 0.00 0.00 0.00 0.00 0.00 0.00 0.00 0.00 0.00 0.01 0.01 0.01 0.01 0.03 0.02 0.02 0.01 0.00 0.00 0.00 0.00 0.00 0.00 0.00 0.00 0.00 0.00 0.00 0.00 0.00 0.00 0.00 0.00 0.00
0.00 0.00 0.00 0.00 0.00 0.00 0.00 0.00 0.00 0.00 0.00 0.00 0.00 0.00 0.00 0.00 0.00 0.00 0.00 0.00 0.00 0.00 0.00 0.00 0.00 0.00 0.01 0.02 0.03 0.03 0.03 0.02 0.01 0.01 0.00 0.00 0.00 0.00 0.00 0.00 0.00 0.00 0.00 0.00 0.00 0.00 0.00 0.00 0.00
0.00 0.00 0.00 0.00 0.00 0.00 0.00 0.00 0.00 0.00 0.00 0.00 0.00 0.00 0.00 0.00 0.00 0.00 0.00 0.00 0.00 0.00 0.00 0.00 0.00 0.00 0.01 0.02 0.04 0.04 0.03 0.02 0.02 0.01 0.00 0.01 0.00 0.00 0.00 0.00 0.00 0.00 0.00 0.00 0.00 0.00 0.00 0.00 0.00
0.00 0.00 0.00 0.00 0.00 0.00 0.00 0.00 0.00 0.00 0.00 0.00 0.00 0.00 0.00 0.00 0.00 0.00 0.00 0.00 0.00 0.00 0.00 0.00 0.00 0.00 0.01 0.02 0.03 0.02 0.02 0.01 0.01 0.01 0.03 0.02 0.01 0.01 0.01 0.00 0.00 0.00 0.00 0.00 0.00 0.00 0.00 0.00 0.00
0.00 0.00 0.00 0.00 0.00 0.00 0.00 0.00 0.00 0.00 0.00 0.00 0.00 0.00 0.00 0.00 0.00 0.00 0.00 0.00 0.00 0.00 0.00 0.00 0.00 0.00 0.00 0.00 0.01 0.01 0.03 0.02 0.02 0.04 0.05 0.05 0.04 0.04 0.02 0.01 0.01 0.00 0.00 0.00 0.00 0.00 0.00 0.00 0.00
0.01 0.00 0.00 0.00 0.00 0.00 0.00 0.00 0.00 0.00 0.00 0.00 0.00 0.00 0.00 0.00 0.00 0.00 0.00 0.00 0.00 0.00 0.00 0.00 0.00 0.00 0.00 0.00 0.02 0.04 0.07 0.06 0.04 0.03 0.02 0.03 0.06 0.08 0.06 0.05 0.04 0.03 0.01 0.01 0.01 0.01 0.00 0.00 0.00
0.03 0.00 0.00 0.00 0.00 0.00 0.00 0.00 0.00 0.00 0.00 0.00 0.00 0.00 0.00 0.00 0.00 0.00 0.00 0.00 0.00 0.00 0.00 0.00 0.00 0.00 0.00 0.00 0.01 0.02 0.02 0.01 0.01 0.01 0.01 0.04 0.07 0.11 0.11 0.09 0.07 0.05 0.04 0.03 0.03 0.02 0.02 0.01 0.01
0.02 0.01 0.00 0.00 0.00 0.00 0.00 0.00 0.00 0.00 0.00 0.00 0.00 0.00 0.00 0.00 0.00 0.00 0.00 0.00 0.00 0.00 0.00 0.00 0.00 0.00 0.00 0.00 0.00 0.01 0.00 0.00 0.01 0.02 0.03 0.04 0.06 0.09 0.11 0.11 0.11 0.08 0.07 0.07 0.07 0.05 0.04 0.02 0.02
0.01 0.00 0.00 0.00 0.00 0.00 0.00 0.00 0.00 0.00 0.00 0.00 0.00 0.00 0.00 0.00 0.00 0.00 0.00 0.00 0.00 0.00 0.00 0.00 0.00 0.00 0.00 0.00 0.00 0.00 0.00 0.01 0.01 0.01 0.03 0.04 0.05 0.07 0.09 0.11 0.10 0.10 0.11 0.11 0.10 0.07 0.05 0.04 0.02
0.01 0.00 0.00 0.00 0.00 0.00 0.00 0.00 0.00 0.00 0.00 0.00 0.00 0.00 0.00 0.00 0.00 0.00 0.00 0.00 0.00 0.00 0.00 0.00 0.00 0.00 0.00 0.00 0.00 0.00 0.00 0.00 0.00 0.01 0.02 0.03 0.03 0.03 0.06 0.08 0.10 0.12 0.15 0.15 0.12 0.09 0.07 0.04 0.03
0.00 0.00 0.00 0.00 0.00 0.00 0.00 0.00 0.00 0.00 0.00 0.00 0.00 0.00 0.00 0.00 0.00 0.00 0.00 0.00 0.00 0.00 0.00 0.00 0.00 0.00 0.00 0.00 0.00 0.00 0.00 0.00 0.00 0.01 0.01 0.01 0.02 0.03 0.06 0.08 0.10 0.13 0.14 0.14 0.13 0.12 0.09 0.06 0.04
0.00 0.00 0.00 0.00 0.00 0.00 0.00 0.00 0.00 0.00 0.00 0.00 0.00 0.00 0.00 0.00 0.00 0.00 0.00 0.00 0.00 0.00 0.00 0.00 0.00 0.00 0.00 0.00 0.00 0.00 0.00 0.00 0.00 0.00 0.01 0.01 0.02 0.04 0.05 0.07 0.09 0.11 0.12 0.13 0.14 0.12 0.09 0.06 0.04
0.00 0.00 0.00 0.00 0.00 0.00 0.00 0.00 0.00 0.00 0.00 0.00 0.00 0.00 0.00 0.00 0.00 0.00 0.00 0.00 0.00 0.00 0.00 0.00 0.00 0.00 0.00 0.00 0.00 0.00 0.00 0.00 0.00 0.01 0.01 0.02 0.02 0.03 0.05 0.06 0.07 0.08 0.09 0.10 0.10 0.09 0.07 0.06 0.05
0.00 0.00 0.00 0.00 0.00 0.00 0.00 0.00 0.00 0.00 0.00 0.00 0.00 0.00 0.00 0.00 0.00 0.00 0.00 0.00 0.00 0.00 0.00 0.00 0.00 0.00 0.00 0.00 0.00 0.00 0.00 0.01 0.01 0.01 0.02 0.02 0.03 0.03 0.04 0.05 0.05 0.06 0.06 0.06 0.07 0.06 0.05 0.06 0.07
0.00 0.00 0.00 0.00 0.00 0.00 0.00 0.00 0.00 0.00 0.00 0.00 0.00 0.00 0.00 0.00 0.00 0.00 0.00 0.00 0.00 0.00 0.00 0.00 0.00 0.00 0.00 0.00 0.00 0.01 0.01 0.01 0.02 0.02 0.02 0.03 0.03 0.03 0.03 0.03 0.03 0.03 0.03 0.03 0.04 0.04 0.06 0.08 0.09
MSLP
1013.65 1014.46 1015.46 1016.50 1017.42 1018.10 1018.44 1018.41 1018.04 1017.41 1016.66 1015.90 1015.23 1014.69 1014.31 1014.06 1013.88 1013.73 1013.57 1013.40 1013.22 1013.08 1013.01 1013.07 1013.25 1013.55 1013.94 1014.36 1014.79 1015.17 1015.50 1015.79 1016.03 1016.26 1016.47 1016.69 1016.89 1017.08 1017.23 1017.35 1017.44 1017.52 1017.60 1017.71 1017.86 1018.04 1018.25 1018.46 1018.66
1014.09 1015.03 1016.10 1017.14 1017.98 1018.52 1018.66 1018.41 1017.81 1016.98 1016.05 1015.17 1014.42 1013.85 1013.49 1013.28 1013.17 1013.11 1013.06 1012.99 1012.93 1012.89 1012.93 1013.07 1013.31 1013.65 1014.06 1014.50 1014.92 1015.32 1015.67 1015.97 1016.25 1016.50 1016.75 1016.98 1017.18 1017.36 1017.49 1017.58 1017.64 1017.70 1017.77 1017.88 1018.03 1018.21 1018.42 1018.64 1018.83
1014.63 1015.63 1016.70 1017.66 1018.38 1018.74 1018.69 1018.23 1017.46 1016.49 1015.46 1014.52 1013.75 1013.19 1012.85 1012.68 1012.63 1012.64 1012.66 1012.68 1012.71 1012.78 1012.92 1013.14 1013.44 1013.83 1014.25 1014.69 1015.11 1015.50 1015.84 1016.15 1016.44 1016.71 1016.97 1017.21 1017.41 1017.58 1017.69 1017.77 1017.81 1017.85 1017.92 1018.03 1018.18 1018.37 1018.59 1018.80 1019.00
1015.20 1016.20 1017.19 1018.03 1018.58 1018.75 1018.51 1017.91 1017.03 1015.99 1014.96 1014.03 1013.30 1012.78 1012.49 1012.35 1012.34 1012.38 1012.45 1012.53 1012.64 1012.79 1013.00 1013.30 1013.66 1014.08 1014.51 1014.94 1015.33 1015.69 1016.01 1016.30 1016.58 1016.85 1017.12 1017.37 1017.58 1017.75 1017.86 1017.93 1017.97 1018.01 1018.08 1018.20 1018.36 1018.56 1018.78 1019.00 1019.20
1015.72 1016.66 1017.53 1018.19 1018.55 1018.54 1018.16 1017.46 1016.55 1015.54 1014.57 1013.73 1013.09 1012.65 1012.41 1012.31 1012.30 1012.35 1012.44 1012.55 1012.70 1012.91 1013.19 1013.54 1013.94 1014.37 1014.80 1015.19 1015.55 1015.86 1016.13 1016.39 1016.66 1016.93 1017.21 1017.47 1017.70 1017.88 1018.01 1018.10 1018.15 1018.21 1018.30 1018.42 1018.60 1018.81 1019.04 1019.26 1019.46
1016.12 1016.95 1017.65 1018.13 1018.29 1018.13 1017.64 1016.92 1016.04 1015.14 1014.30 1013.61 1013.09 1012.76 1012.57 1012.49 1012.48 1012.52 1012.58 1012.69 1012.86 1013.10 1013.42 1013.81 1014.23 1014.66 1015.07 1015.42 1015.72 1015.97 1016.20 1016.43 1016.67 1016.94 1017.23 1017.52 1017.78 1018.00 1018.17 1018.28 1018.37 1018.46 1018.57 1018.71 1018.90 1019.12 1019.35 1019.57 1019.76
1016.35 1017.04 1017.56 1017.84 1017.84 1017.55 1017.02 1016.32 1015.55 1014.79 1014.14 1013.62 1013.25 1013.02 1012.88 1012.81 1012.78 1012.78 1012.81 1012.90 1013.07 1013.32 1013.65 1014.05 1014.48 1014.90 1015.27 1015.58 1015.83 1016.03 1016.21 1016.41 1016.65 1016.92 1017.24 1017.56 1017.87 1018.13 1018.34 1018.50 1018.62 1018.74 1018.88 1019.04 1019.24 1019.47 1019.70 1019.90 1020.08
1016.41 1016.94 1017.28 1017.38 1017.24 1016.88 1016.35 1015.72 1015.09 1014.52 1014.05 1013.71 1013.48 1013.34 1013.24 1013.17 1013.11 1013.06 1013.04 1013.09 1013.24 1013.48 1013.82 1014.22 1014.64 1015.04 1015.38 1015.65 1015.86 1016.02 1016.17 1016.36 1016.60 1016.90 1017.25 1017.61 1017.96 1018.27 1018.53 1018.73 1018.89 1019.04 1019.19 1019.37 1019.58 1019.80 1020.02 1020.22 1020.38
1016.32 1016.69 1016.87 1016.83 1016.59 1016.20 1015.70 1015.18 1014.70 1014.30 1014.02 1013.83 1013.72 1013.64 1013.57 1013.48 1013.37 1013.27 1013.20 1013.22 1013.34 1013.57 1013.90 1014.29 1014.70 1015.08 1015.40 1015.64 1015.82 1015.97 1016.12 1016.31 1016.57 1016.90 1017.28 1017.68 1018.07 1018.42 1018.71 1018.94 1019.12 1019.29 1019.47 1019.66 1019.87 1020.09 1020.30 1020.49 1020.63
1016.12 1016.36 1016.41 1016.27 1015.97 1015.58 1015.15 1014.74 1014.40 1014.17 1014.03 1013.96 1013.93 1013.89 1013.81 1013.69 1013.54 1013.39 1013.28 1013.26 1013.36 1013.57 1013.89 1014.27 1014.66 1015.02 1015.32 1015.56 1015.73 1015.89 1016.06 1016.28 1016.57 1016.93 1017.34 1017.77 1018.18 1018.55 1018.85 1019.10 1019.30 1019.48 1019.67 1019.87 1020.08 1020.31 1020.52 1020.70 1020.84
1015.87 1016.00 1015.95 1015.76 1015.45 1015.09 1014.74 1014.44 1014.23 1014.12 1014.08 1014.08 1014.09 1014.05 1013.96 1013.80 1013.61 1013.42 1013.28 1013.24 1013.31 1013.51 1013.80 1014.16 1014.54 1014.89 1015.18 1015.42 1015.61 1015.79 1015.99 1016.25 1016.57 1016.97 1017.40 1017.84 1018.26 1018.63 1018.93 1019.18 1019.39 1019.58 1019.78 1019.99 1020.22 1020.46 1020.68 1020.88 1021.02
1015.61 1015.67 1015.57 1015.36 1015.07 1014.77 1014.50 1014.30 1014.18 1014.15 1014.16 1014.19 1014.19 1014.14 1014.02 1013.83 1013.61 1013.39 1013.24 1013.17 1013.23 1013.40 1013.67 1014.00 1014.35 1014.68 1014.97 1015.22 1015.44 1015.66 1015.90 1016.20 1016.56 1016.98 1017.42 1017.86 1018.27 1018.63 1018.92 1019.17 1019.38 1019.58 1019.80 1020.04 1020.30 1020.57 1020.83 1021.05 1021.21
1015.38 1015.40 1015.29 1015.09 1014.85 1014.61 1014.42 1014.29 1014.24 1014.24 1014.26 1014.28 1014.25 1014.16 1014.01 1013.79 1013.55 1013.33 1013.16 1013.09 1013.12 1013.27 1013.50 1013.79 1014.11 1014.42 1014.70 1014.96 1015.20 1015.46 1015.75 1016.09 1016.48 1016.91 1017.35 1017.78 1018.17 1018.51 1018.80 1019.04 1019.27 1019.50 1019.76 1020.04 1020.36 1020.68 1020.98 1021.24 1021.44
1015.20 1015.21 1015.12 1014.96 1014.78 1014.61 1014.48 1014.40 1014.36 1014.35 1014.35 1014.32 1014.25 1014.11 1013.93 1013.70 1013.46 1013.23 1013.07 1012.99 1013.00 1013.10 1013.28 1013.52 1013.79 1014.06 1014.33 1014.60 1014.87 1015.17 1015.49 1015.86 1016.27 1016.70 1017.14 1017.55 1017.93 1018.26 1018.55 1018.81 1019.07 1019.35 1019.66 1020.02 1020.40 1020.78 1021.15 1021.47 1021.72
1015.09 1015.12 1015.06 1014.96 1014.84 1014.73 1014.63 1014.57 1014.51 1014.46 1014.40 1014.30 1014.17 1013.99 1013.78 1013.54 1013.31 1013.10 1012.94 1012.84 1012.82 1012.88 1013.00 1013.17 1013.38 1013.61 1013.86 1014.13 1014.42 1014.74 1015.09 1015.49 1015.90 1016.33 1016.76 1017.16 1017.53 1017.86 1018.17 1018.47 1018.79 1019.14 1019.53 1019.96 1020.42 1020.88 1021.32 1021.69 1021.99
1015.04 1015.11 1015.11 1015.06 1015.00 1014.93 1014.85 1014.77 1014.67 1014.54 1014.39 1014.22 1014.02 1013.79 1013.56 1013.33 1013.11 1012.91 1012.75 1012.64 1012.58 1012.58 1012.62 1012.72 1012.86 1013.05 1013.27 1013.53 1013.83 1014.17 1014.54 1014.94 1015.36 1015.79 1016.20 1016.59 1016.97 1017.32 1017.67 1018.03 1018.42 1018.85 1019.33 1019.85 1020.39 1020.92 1021.42 1021.86 1022.21
1015.07 1015.19 1015.25 1015.27 1015.26 1015.21 1015.13 1015.00 1014.82 1014.60 1014.34 1014.07 1013.80 1013.53 1013.27 1013.04 1012.83 1012.65 1012.49 1012.35 1012.25 1012.18 1012.15 1012.17 1012.25 1012.39 1012.58 1012.84 1013.14 1013.49 1013.86 1014.26 1014.67 1015.08 1015.48 1015.88 1016.26 1016.65 1017.06 1017.49 1017.96 1018.48 1019.04 1019.63 1020.24 1020.84 1021.39 1021.88 1022.28
1015.16 1015.35 1015.48 1015.57 1015.60 1015.57 1015.45 1015.25 1014.98 1014.64 1014.27 1013.89 1013.54 1013.22 1012.95 1012.72 1012.52 1012.34 1012.17 1012.00 1011.85 1011.71 1011.61 1011.56 1011.58 1011.67 1011.85 1012.09 1012.39 1012.73 1013.10 1013.49 1013.87 1014.26 1014.65 1015.04 1015.45 1015.88 1016.34 1016.85 1017.40 1017.99 1018.62 1019.27 1019.93 1020.56 1021.15 1021.67 1022.11
1015.31 1015.58 1015.80 1015.96 1016.04 1016.00 1015.85 1015.56 1015.17 1014.71 1014.21 1013.73 1013.30 1012.93 1012.63 1012.39 1012.19 1012.01 1011.82 1011.62 1011.42 1011.22 1011.05 1010.94 1010.91 1010.97 1011.12 1011.35 1011.64 1011.97 1012.32 1012.67 1013.03 1013.38 1013.75 1014.13 1014.55 1015.02 1015.53 1016.10 1016.72 1017.37 1018.05 1018.73 1019.40 1020.05 1020.66 1021.20 1021.68
1015.50 1015.87 1016.19 1016.42 1016.54 1016.51 1016.30 1015.94 1015.43 1014.84 1014.22 1013.63 1013.11 1012.69 1012.36 1012.11 1011.91 1011.72 1011.51 1011.28 1011.03 1010.78 1010.56 1010.40 1010.33 1010.36 1010.48 1010.69 1010.96 1011.26 1011.57 1011.88 1012.18 1012.49 1012.82 1013.19 1013.61 1014.10 1014.66 1015.27 1015.93 1016.62 1017.31 1018.00 1018.67 1019.31 1019.91 1020.47 1020.99
1015.72 1016.20 1016.62 1016.94 1017.11 1017.08 1016.83 1016.38 1015.76 1015.05 1014.31 1013.62 1013.03 1012.55 1012.20 1011.94 1011.73 1011.53 1011.30 1011.04 1010.75 1010.46 1010.19 1009.99 1009.89 1009.89 1009.98 1010.16 1010.39 1010.64 1010.90 1011.14 1011.37 1011.62 1011.90 1012.24 1012.66 1013.16 1013.74 1014.38 1015.06 1015.76 1016.45 1017.12 1017.77 1018.39 1018.98 1019.55 1020.10
1015.96 1016.54 1017.08 1017.48 1017.70 1017.67 1017.39 1016.86 1016.15 1015.33 1014.49 1013.71 1013.05 1012.54 1012.16 1011.89 1011.67 1011.46 1011.22 1010.94 1010.62 1010.29 1009.99 1009.75 1009.62 1009.58 1009.64 1009.78 1009.95 1010.13 1010.31 1010.47 1010.62 1010.79 1011.01 1011.32 1011.71 1012.21 1012.80 1013.46 1014.15 1014.84 1015.52 1016.17 1016.79 1017.38 1017.96 1018.54 1019.12
1016.20 1016.90 1017.53 1018.02 1018.28 1018.26 1017.94 1017.35 1016.55 1015.63 1014.71 1013.86 1013.15 1012.61 1012.22 1011.94 1011.73 1011.52 1011.28 1010.98 1010.64 1010.28 1009.95 1009.68 1009.50 1009.42 1009.43 1009.50 1009.60 1009.70 1009.78 1009.84 1009.91 1010.00 1010.16 1010.42 1010.79 1011.29 1011.88 1012.54 1013.24 1013.93 1014.60 1015.23 1015.82 1016.40 1016.97 1017.57 1018.19
1016.47 1017.26 1017.98 1018.53 1018.82 1018.80 1018.44 1017.79 1016.91 1015.92 1014.92 1014.02 1013.28 1012.72 1012.33 1012.06 1011.85 1011.65 1011.41 1011.11 1010.76 1010.38 1010.02 1009.72 1009.50 1009.37 1009.31 1009.30 1009.31 1009.31 1009.29 1009.25 1009.23 1009.24 1009.35 1009.57 1009.92 1010.41 1011.01 1011.69 1012.40 1013.10 1013.77 1014.39 1014.98 1015.55 1016.14 1016.76 1017.42
1016.78 1017.64 1018.43 1019.02 1019.32 1019.27 1018.86 1018.14 1017.19 1016.13 1015.08 1014.14 1013.37 1012.80 1012.42 1012.17 1011.99 1011.80 1011.57 1011.28 1010.92 1010.54 1010.15 1009.81 1009.54 1009.35 1009.22 1009.13 1009.04 1008.94 1008.82 1008.69 1008.58 1008.53 1008.58 1008.78 1009.12 1009.62 1010.24 1010.94 1011.67 1012.39 1013.08 1013.72 1014.33 1014.92 1015.53 1016.18 1016.88
1017.16 1018.07 1018.89 1019.48 1019.75 1019.65 1019.17 1018.37 1017.35 1016.22 1015.12 1014.15 1013.38 1012.82 1012.45 1012.23 1012.07 1011.92 1011.71 1011.43 1011.08 1010.68 1010.28 1009.91 1009.59 1009.34 1009.13 1008.95 1008.77 1008.58 1008.37 1008.16 1007.98 1007.89 1007.91 1008.09 1008.44 1008.95 1009.59 1010.32 1011.09 1011.85 1012.57 1013.26 1013.90 1014.54 1015.18 1015.87 1016.61
1017.63 1018.56 1019.36 1019.91 1020.12 1019.93 1019.36 1018.47 1017.37 1016.18 1015.04 1014.05 1013.28 1012.74 1012.40 1012.21 1012.09 1011.97 1011.79 1011.53 1011.19 1010.80 1010.38 1009.99 1009.63 1009.32 1009.04 1008.79 1008.53 1008.26 1007.98 1007.71 1007.49 1007.37 1007.38 1007.56 1007.92 1008.45 1009.12 1009.89 1010.69 1011.50 1012.27 1013.01 1013.71 1014.39 1015.09 1015.82 1016.58
1018.16 1019.07 1019.83 1020.30 1020.40 1020.10 1019.42 1018.43 1017.25 1016.01 1014.84 1013.85 1013.10 1012.59 1012.29 1012.14 1012.06 1011.97 1011.83 1011.60 1011.28 1010.89 1010.48 1010.06 1009.67 1009.32 1008.99 1008.68 1008.37 1008.05 1007.72 1007.42 1007.18 1007.05 1007.06 1007.25 1007.62 1008.17 1008.87 1009.66 1010.50 1011.34 1012.17 1012.96 1013.71 1014.45 1015.20 1015.96 1016.76
1018.70 1019.57 1020.23 1020.59 1020.56 1020.12 1019.32 1018.24 1016.99 1015.72 1014.56 1013.59 1012.88 1012.42 1012.17 1012.07 1012.04 1011.99 1011.89 1011.68 1011.39 1011.02 1010.61 1010.19 1009.79 1009.41 1009.05 1008.71 1008.37 1008.02 1007.68 1007.37 1007.13 1007.00 1007.02 1007.22 1007.60 1008.16 1008.86 1009.67 1010.53 1011.40 1012.26 1013.09 1013.89 1014.68 1015.46 1016.26 1017.06
1019.17 1019.95 1020.49 1020.70 1020.52 1019.95 1019.04 1017.88 1016.61 1015.35 1014.22 1013.32 1012.68 1012.30 1012.13 1012.09 1012.11 1012.11 1012.04 1011.87 1011.60 1011.25 1010.86 1010.44 1010.04 1009.66 1009.29 1008.94 1008.59 1008.24 1007.90 1007.61 1007.38 1007.27 1007.30 1007.51 1007.89 1008.44 1009.13 1009.93 1010.78 1011.65 1012.52 1013.37 1014.20 1015.02 1015.83 1016.64 1017.45
Thickness
5689 5695 5698 5691 5673 5658 5664 5679 5691 5702 5713 5726 5734 5736 5735 5735 5734 5737 5755 5761 5762 5760 5756 5752 5749 5746 5744 5741 5739 5736 5734 5732 5730 5729 5727 5726 5725 5724 5724 5724 5725 5725 5724 5722 5720 5718 5716 5714 5712
5684 5689 5685 5673 5655 5649 5661 5678 5689 5702 5716 5723 5732 5735 5736 5741 5749 5749 5752 5756 5758 5756 5752 5748 5745 5742 5740 5737 5735 5732 5730 5727 5725 5724 5722 5721 5720 5720 5719 5719 5719 5719 5717 5716 5714 5712 5710 5708 5707
5678 5680 5668 5655 5648 5652 5669 5684 5689 5704 5713 5719 5726 5732 5734 5740 5746 5748 5753 5754 5754 5751 5748 5745 5741 5738 5736 5733 5731 5729 5726 5723 5721 5719 5718 5716 5716 5715 5715 5714 5713 5712 5711 5709 5708 5706 5704 5703 5701
5669 5661 5653 5646 5652 5665 5675 5689 5692 5698 5709 5716 5720 5723 5733 5743 5747 5751 5753 5751 5748 5745 5743 5740 5737 5735 5732 5730 5727 5725 5722 5720 5717 5715 5713 5712 5711 5710 5709 5708 5706 5705 5704 5703 5702 5700 5699 5697 5696
5656 5647 5640 5639 5655 5669 5675 5683 5691 5694 5699 5708 5713 5715 5727 5740 5747 5749 5748 5746 5742 5740 5737 5735 5733 5731 5728 5726 5724 5721 5719 5716 5714 5711 5709 5708 5707 5705 5704 5702 5701 5699 5698 5697 5696 5695 5693 5692 5691
5638 5635 5628 5636 5657 5669 5675 5682 5688 5692 5696 5702 5709 5712 5725 5735 5739 5741 5743 5741 5738 5735 5732 5730 5728 5726 5723 5721 5720 5718 5716 5713 5711 5708 5705 5704 5702 5701 5699 5697 5695 5694 5693 5692 5691 5689 5688 5686 5685
5631 5628 5629 5641 5654 5662 5674 5679 5684 5688 5692 5699 5708 5707 5719 5729 5733 5735 5735 5734 5732 5729 5727 5725 5723 5721 5719 5717 5716 5714 5712 5709 5707 5705 5702 5700 5698 5696 5694 5692 5691 5689 5688 5687 5685 5684 5682 5681 5680
5632 5626 5628 5636 5648 5660 5673 5679 5687 5688 5693 5704 5706 5703 5711 5723 5727 5728 5727 5725 5724 5723 5722 5720 5719 5717 5715 5714 5712 5709 5707 5705 5703 5701 5698 5696 5694 5691 5689 5688 5686 5684 5683 5682 5680 5679 5677 5675 5674
5628 5618 5622 5636 5646 5659 5669 5673 5682 5690 5693 5699 5703 5707 5714 5720 5721 5720 5718 5717 5716 5716 5715 5715 5714 5713 5711 5710 5708 5705 5703 5701 5698 5696 5694 5692 5689 5687 5685 5683 5681 5679 5678 5676 5675 5673 5671 5670 5669
5618 5614 5628 5644 5651 5658 5664 5668 5674 5679 5684 5690 5696 5702 5709 5712 5714 5714 5713 5712 5711 5711 5710 5711 5710 5708 5707 5706 5704 5701 5699 5696 5694 5692 5690 5687 5685 5682 5680 5678 5676 5674 5672 5671 5669 5667 5665 5664 5662
5615 5618 5632 5642 5652 5658 5660 5663 5668 5671 5674 5681 5685 5691 5698 5702 5705 5707 5708 5709 5709 5708 5707 5707 5706 5704 5703 5701 5700 5697 5695 5693 5690 5688 5685 5683 5680 5677 5675 5673 5671 5669 5667 5665 5663 5661 5659 5658 5656
5610 5619 5630 5638 5648 5651 5654 5657 5660 5665 5672 5682 5684 5688 5692 5694 5697 5700 5701 5703 5704 5704 5704 5703 5702 5700 5698 5697 5695 5693 5691 5689 5686 5684 5681 5678 5675 5673 5671 5668 5666 5664 5662 5659 5657 5655 5653 5652 5650
5607 5617 5626 5634 5640 5645 5649 5650 5653 5661 5670 5676 5680 5682 5685 5688 5690 5694 5696 5698 5700 5700 5700 5699 5698 5696 5694 5692 5691 5689 5687 5684 5682 5680 5678 5675 5672 5669 5666 5664 5661 5659 5657 5654 5652 5649 5647 5646 5644
5605 5611 5619 5626 5632 5638 5641 5645 5647 5658 5665 5668 5672 5675 5677 5680 5685 5689 5691 5693 5695 5697 5697 5696 5695 5693 5691 5689 5687 5686 5683 5681 5678 5677 5675 5672 5669 5666 5662 5660 5657 5655 5652 5650 5647 5645 5642 5639 5637
5601 5603 5609 5618 5625 5631 5635 5636 5643 5656 5659 5660 5663 5667 5671 5675 5678 5682 5687 5690 5692 5694 5694 5694 5693 5691 5689 5687 5685 5683 5681 5678 5676 5674 5672 5669 5666 5663 5660 5656 5654 5651 5648 5645 5642 5639 5636 5633 5630
5592 5593 5595 5610 5618 5625 5624 5626 5642 5652 5652 5653 5657 5660 5664 5670 5674 5677 5681 5684 5687 5689 5690 5690 5690 5689 5687 5686 5684 5681 5679 5676 5674 5672 5670 5668 5665 5661 5657 5654 5651 5648 5645 5641 5637 5633 5629 5626 5623
5580 5579 5588 5601 5611 5616 5617 5622 5637 5644 5646 5647 5651 5655 5659 5663 5668 5672 5675 5677 5681 5683 5685 5686 5686 5687 5686 5685 5683 5680 5677 5675 5673 5671 5669 5667 5664 5660 5656 5653 5649 5645 5641 5637 5633 5628 5625 5620 5617
5571 5577 5582 5588 5599 5606 5609 5614 5630 5637 5639 5641 5645 5650 5654 5659 5666 5668 5670 5673 5676 5678 5680 5681 5683 5684 5684 5682 5679 5676 5674 5673 5671 5670 5668 5666 5662 5659 5655 5650 5646 5642 5637 5632 5628 5623 5619 5615 5612
5569 5571 5575 5582 5590 5597 5601 5606 5622 5633 5632 5636 5642 5647 5652 5657 5663 5665 5666 5669 5671 5673 5674 5676 5678 5680 5679 5677 5676 5674 5673 5673 5671 5669 5667 5663 5661 5658 5653 5649 5643 5639 5635 5631 5625 5619 5613 5607 5604
5564 5565 5569 5575 5581 5588 5589 5598 5617 5628 5631 5634 5638 5642 5645 5650 5655 5658 5660 5662 5664 5667 5669 5671 5673 5675 5675 5676 5676 5675 5674 5673 5672 5668 5665 5662 5660 5657 5653 5648 5643 5637 5632 5626 5622 5617 5610 5604 5600
5559 5561 5564 5568 5571 5572 5577 5597 5610 5620 5621 5625 5628 5631 5634 5639 5644 5648 5652 5655 5658 5660 5662 5666 5667 5669 5670 5671 5671 5670 5668 5667 5664 5663 5662 5661 5657 5653 5650 5647 5642 5636 5632 5626 5621 5617 5611 5602 5595
5554 5558 5560 5561 5560 5556 5563 5572 5600 5604 5608 5617 5619 5619 5624 5629 5633 5638 5643 5647 5650 5653 5656 5658 5660 5662 5663 5663 5663 5663 5663 5663 5664 5663 5661 5658 5654 5650 5647 5644 5640 5635 5631 5627 5621 5616 5611 5604 5593
5547 5549 5550 5548 5547 5545 5547 5557 5586 5592 5605 5609 5611 5612 5615 5619 5625 5630 5634 5638 5641 5644 5646 5648 5650 5652 5654 5654 5655 5655 5657 5659 5659 5657 5655 5652 5649 5646 5644 5641 5636 5633 5629 5626 5620 5613 5608 5604 5597
5541 5537 5530 5523 5527 5539 5544 5542 5570 5583 5595 5597 5601 5604 5607 5612 5618 5623 5626 5630 5632 5634 5636 5637 5639 5641 5643 5644 5645 5646 5648 5649 5648 5647 5647 5645 5642 5640 5637 5635 5632 5629 5626 5621 5616 5610 5604 5599 5594
5536 5530 5524 5527 5518 5529 5534 5532 5557 5580 5587 5590 5594 5597 5599 5604 5609 5613 5616 5619 5621 5623 5625 5626 5627 5629 5631 5631 5632 5634 5636 5637 5638 5639 5638 5637 5635 5633 5631 5628 5625 5623 5620 5615 5609 5603 5597 5591 5586
5530 5533 5525 5532 5534 5526 5527 5530 5558 5576 5581 5586 5589 5591 5594 5598 5601 5603 5605 5607 5609 5611 5613 5614 5615 5616 5617 5617 5618 5620 5622 5623 5626 5627 5627 5628 5628 5628 5626 5621 5619 5615 5611 5606 5600 5593 5587 5581 5575
5522 5518 5521 5508 5506 5512 5528 5535 5553 5578 5580 5583 5583 5586 5589 5592 5594 5595 5597 5598 5599 5600 5601 5601 5601 5602 5603 5603 5603 5604 5606 5607 5610 5612 5613 5615 5616 5615 5613 5609 5606 5602 5598 5594 5588 5581 5575 5569 5563
5523 5512 5503 5500 5512 5528 5537 5539 5552 5572 5576 5577 5578 5579 5583 5585 5585 5585 5586 5587 5587 5588 5588 5587 5587 5586 5586 5586 5585 5587 5588 5590 5592 5593 5595 5596 5598 5598 5596 5594 5591 5588 5584 5580 5574 5568 5562 5556 5549
5514 5512 5503 5493 5502 5510 5532 5553 5562 5565 5571 5570 5569 5571 5574 5574 5573 5573 5572 5573 5574 5575 5574 5572 5570 5569 5568 5566 5565 5566 5567 5569 5570 5572 5574 5576 5577 5578 5578 5577 5575 5572 5569 5565 5560 5554 5549 5543 5536
5518 5512 5502 5500 5495 5492 5493 5533 5564 5562 5563 5562 5564 5568 5568 5565 5562 5561 5560 5560 5561 5559 5558 5555 5552 5549 5546 5545 5544 5544 5545 5545 5547 5550 5552 5555 5557 5559 5560 5560 5559 5557 5554 5551 5546 5541 5535 5530 5523